Find Starlink 6084

NORAD ID: 56111 Int'l Des: 2023-046 Owner: SPXS Country: US Constellation: starlink operational
LEOCIRCULAR

实时位置

正在加载3D地球...

关于 Starlink 6084

正在加载描述...

即将过境

Passes for default location (London). Set your location on the main map for personalized predictions.

高度历史

Loading altitude history...

两行轨道根数

1 56111U 23046U 26123.53335322 .00000263 00000-0 19080-4 0 9992
2 56111 43.0011 212.2790 0001307 269.8871 90.1831 15.27576455170412
Epoch: May 3, 2026 • Age: 13 hours

当前状态

高度 487.1 km
速度 7.63 km/s
星下点 43.14°N, 53.17°E
发射日期 Mar 29, 2023
运行时间 3 years
类型 internet

技术详情

分类 Payload
质量 305.00 kg
干质量 290.00 kg
总质量 305.00 kg
长度 0.20 m
直径 2.80 m
跨度 9.00 m
形状 Box + pan
制造商 SPXS
平台类型 Starlink
阶段状态 In Orbit
所有者/国家 SPXS/US

Most Searched